Probability
65 90 100 100 97 100 100 100 100 100 100 100 100 100 100 100 100 100 100 100 100 100 100 100 100 100 100 100 100 100 100 100 100 100 97 97 97 97 97 90 81 77 90
68 100 100 100 100 100 100 100 100 100 100 100 100 100 100 100 100 100 100 100 100 100 100 100 100 100 100 100 100 100 100 100 100 100 97 97 97 97 97 84 77 77 84
81 100 100 100 100 100 100 100 100 100 100 100 100 100 100 100 100 100 100 100 100 100 100 100 100 100 100 100 100 100 100 100 100 100 97 94 97 97 94 90 87 87 84
87 97 100 100 100 100 100 100 100 100 100 100 100 100 100 100 100 100 100 100 100 100 100 100 100 100 100 100 100 100 100 100 100 97 87 87 90 97 97 90 84 81 87
90 97 100 100 100 100 100 100 100 100 100 100 100 100 100 100 100 100 100 100 100 100 100 100 100 100 100 100 100 100 100 100 97 84 68 81 94 97 97 90 84 84 84
90 94 97 100 100 100 100 100 100 100 100 100 100 100 100 100 100 100 100 100 100 100 100 100 100 100 100 100 100 100 100 97 77 48 58 84 94 97 97 94 90 84 87
84 87 94 100 100 100 100 100 100 100 100 100 100 100 100 100 100 100 100 100 100 100 100 100 100 100 100 97 100 97 97 94 42 42 48 84 94 97 94 87 94 90 84
84 90 94 97 97 100 97 97 97 100 100 100 100 100 100 100 100 100 100 100 100 100 100 100 97 97 97 97 97 94 97 90 55 39 48 61 94 94 94 97 94 87 87
84 87 87 90 90 90 94 94 94 97 97 97 97 100 100 100 100 100 100 100 100 100 97 94 97 97 97 100 97 100 87 84 16 32 32 52 87 94 97 97 87 87 87
81 84 84 84 84 87 87 94 94 94 94 97 94 97 97 97 97 97 97 100 100 97 97 94 94 97 100 97 97 87 94 71 10 16 26 35 90 97 94 90 90 84 81
81 84 84 84 84 84 84 87 87 90 90 90 90 94 94 94 94 94 94 97 94 94 94 94 90 97 97 97 94 97 68 23 10 13 23 42 94 90 87 87 87 84 84
71 77 74 77 81 84 84 84 84 84 84 87 87 87 87 87 87 87 90 94 94 97 97 97 94 90 81 71 77 68 35 19 10 16 23 48 84 87 87 87 87 77 77
58 68 65 71 71 77 74 74 74 77 77 81 84 84 74 74 77 81 81 81 84 84 81 87 77 68 58 39 26 23 16 13 16 13 19 61 84 87 84 81 77 68 71
48 55 58 58 68 65 65 71 71 71 71 71 68 74 71 71 68 71 71 74 74 68 52 52 52 42 35 16 13 10 6 6 6 13 16 55 81 81 77 74 71 71 61
48 52 55 55 61 61 61 55 55 48 55 58 61 58 58 52 58 48 55 52 52 48 48 39 32 29 23 13 13 6 6 3 3 3 10 35 65 74 71 74 61 61 48
42 42 48 45 42 45 45 45 45 42 45 42 48 48 42 42 42 35 26 32 32 32 32 26 23 19 13 13 10 3 0 0 0 0 3 23 35 55 65 58 55 52 45
35 32 39 35 35 35 39 29 39 42 39 39 35 39 39 35 32 26 26 26 32 23 19 16 16 13 6 6 3 3 3 0 0 0 6 6 19 42 42 52 42 42 42
29 35 35 35 32 32 26 26 23 23 26 29 26 26 26 26 19 13 19 26 19 13 13 13 13 13 3 0 0 3 3 0 0 0 6 3 6 10 29 32 39 35 35
26 26 26 26 23 26 19 16 13 10 13 16 13 16 19 26 16 13 10 10 10 13 10 10 10 6 3 0 0 0 0 0 0 0 3 3 3 10 13 16 16 19 19
19 19 19 19 19 23 19 10 3 6 6 6 10 10 10 16 16 10 6 6 3 10 10 10 10 3 0 0 0 0 0 0 0 0 0 3 3 3 0 3 10 6 13
19 19 19 16 16 16 19 16 3 3 3 3 3 3 3 6 6 10 10 3 3 6 10 10 10 0 0 0 0 0 0 0 0 0 0 0 3 3 0 0 0 3 3
10 10 13 13 16 19 19 16 6 3 3 3 0 0 3 3 6 6 10 3 3 3 6 6 6 0 0 0 0 0 0 0 0 0 0 0 0 0 0 0 0 0 0
13 13 10 10 16 13 13 6 3 0 0 0 0 0 0 3 3 3 10 3 3 3 3 6 6 0 0 0 0 0 0 0 0 0 0 0 0 0 0 0 0 0 0
10 6 10 3 6 10 6 3 6 3 0 0 0 0 0 0 3 3 3 3 3 3 3 3 3 0 0 0 0 0 0 0 0 0 0 0 0 0 0 0 0 0 0
3 0 0 0 0 3 6 3 3 3 0 0 0 0 0 0 0 3 3 3 3 3 3 3 3 0 0 0 0 0 0 0 0 0 0 0 0 0 0 0 0 0 0
0 3 3 0 3 0 0 3 3 0 0 0 0 0 0 0 0 0 3 3 3 3 3 3 3 0 0 0 0 0 0 0 0 0 0 0 0 0 0 0 0 0 0
Height
5886 5886 5887 5887 5888 5888 5889 5889 5890 5891 5891 5892 5893 5894 5895 5896 5897 5898 5899 5899 5899 5900 5900 5900 5899 5899 5899 5899 5898 5898 5898 5898 5898 5898 5898 5898 5897 5897 5897 5897 5897 5897 5897
5885 5885 5886 5886 5887 5887 5887 5888 5889 5890 5891 5891 5892 5893 5894 5895 5896 5897 5898 5898 5899 5899 5899 5899 5899 5899 5899 5898 5898 5898 5898 5898 5898 5898 5898 5898 5897 5898 5898 5898 5897 5897 5897
5884 5884 5884 5885 5886 5886 5886 5887 5887 5888 5889 5890 5891 5892 5893 5894 5895 5896 5897 5897 5898 5898 5898 5898 5898 5898 5898 5898 5898 5898 5898 5898 5898 5898 5898 5898 5898 5898 5898 5898 5898 5897 5897
5882 5882 5883 5884 5884 5884 5885 5885 5886 5887 5888 5889 5890 5891 5891 5892 5893 5894 5895 5896 5896 5897 5897 5897 5897 5897 5897 5897 5897 5897 5897 5897 5897 5897 5897 5898 5898 5898 5898 5898 5898 5897 5897
5881 5881 5881 5882 5882 5883 5883 5883 5884 5885 5886 5887 5888 5889 5890 5891 5892 5892 5893 5894 5894 5895 5895 5896 5896 5896 5896 5896 5896 5896 5896 5897 5897 5897 5897 5897 5897 5897 5897 5897 5897 5897 5897
5879 5879 5880 5880 5880 5881 5881 5881 5882 5883 5884 5885 5886 5887 5888 5888 5889 5890 5891 5892 5892 5893 5893 5894 5894 5895 5895 5895 5895 5895 5896 5896 5896 5896 5896 5897 5897 5897 5897 5897 5897 5897 5897
5877 5877 5877 5878 5878 5878 5878 5879 5880 5881 5881 5882 5883 5884 5885 5886 5887 5888 5888 5889 5890 5890 5891 5892 5892 5893 5893 5893 5893 5894 5894 5895 5895 5895 5895 5896 5896 5896 5896 5896 5896 5896 5896
5874 5874 5875 5875 5875 5875 5876 5876 5877 5878 5879 5880 5881 5881 5882 5883 5884 5885 5885 5886 5887 5888 5888 5889 5890 5890 5891 5891 5892 5892 5893 5893 5893 5894 5894 5894 5895 5895 5895 5895 5895 5895 5895
5871 5871 5872 5872 5872 5873 5873 5874 5874 5875 5876 5877 5877 5878 5879 5880 5881 5882 5882 5883 5884 5885 5885 5886 5887 5887 5888 5889 5889 5890 5891 5891 5892 5892 5892 5893 5893 5894 5894 5894 5894 5894 5895
5868 5868 5868 5869 5869 5870 5870 5871 5871 5872 5873 5874 5874 5875 5876 5877 5877 5878 5879 5880 5881 5881 5882 5883 5884 5884 5885 5886 5887 5887 5888 5889 5889 5890 5890 5891 5892 5892 5892 5893 5893 5893 5894
5864 5864 5864 5865 5866 5866 5867 5868 5868 5869 5870 5870 5871 5872 5873 5873 5874 5875 5875 5876 5877 5878 5878 5879 5880 5881 5882 5883 5884 5884 5885 5886 5887 5888 5888 5889 5889 5890 5891 5891 5892 5892 5892
5860 5860 5860 5861 5862 5863 5864 5864 5865 5865 5866 5866 5867 5868 5869 5869 5870 5871 5872 5872 5873 5874 5874 5875 5876 5877 5878 5879 5880 5881 5882 5883 5884 5885 5886 5886 5887 5888 5888 5889 5890 5890 5890
5856 5856 5856 5857 5857 5858 5859 5860 5860 5861 5862 5862 5863 5864 5864 5865 5866 5867 5867 5868 5869 5869 5870 5871 5872 5873 5874 5875 5876 5878 5879 5880 5881 5882 5882 5883 5884 5885 5886 5886 5887 5887 5888
5851 5851 5852 5852 5853 5854 5854 5855 5855 5856 5857 5858 5858 5859 5860 5861 5861 5862 5863 5863 5864 5865 5866 5866 5867 5868 5869 5871 5872 5873 5874 5876 5877 5878 5879 5880 5880 5881 5882 5883 5884 5885 5885
5847 5847 5847 5848 5848 5848 5849 5850 5850 5851 5852 5852 5853 5854 5855 5856 5856 5857 5858 5858 5859 5860 5861 5862 5863 5864 5865 5866 5867 5869 5870 5871 5873 5874 5875 5876 5877 5878 5879 5880 5880 5881 5882
5843 5842 5843 5843 5844 5844 5844 5845 5845 5846 5847 5847 5848 5848 5849 5850 5851 5851 5852 5853 5854 5854 5856 5857 5858 5859 5860 5862 5863 5864 5866 5867 5868 5870 5871 5872 5873 5874 5875 5876 5877 5877 5878
5838 5838 5838 5838 5838 5838 5839 5839 5840 5840 5841 5841 5842 5842 5843 5844 5845 5846 5847 5848 5848 5849 5850 5851 5852 5854 5855 5857 5858 5860 5861 5862 5864 5865 5866 5867 5868 5870 5871 5872 5873 5873 5874
5832 5832 5832 5832 5832 5833 5833 5833 5834 5835 5834 5834 5836 5836 5836 5837 5839 5839 5841 5842 5843 5844 5845 5846 5847 5849 5850 5852 5853 5855 5856 5858 5859 5860 5862 5863 5864 5865 5866 5867 5868 5868 5869
5827 5826 5826 5826 5827 5827 5827 5828 5828 5829 5829 5828 5829 5830 5830 5831 5832 5833 5834 5835 5837 5838 5839 5840 5842 5843 5845 5847 5848 5850 5851 5852 5854 5855 5857 5858 5859 5860 5861 5862 5863 5863 5864
5821 5820 5820 5820 5821 5821 5821 5821 5822 5822 5823 5823 5823 5824 5824 5825 5825 5826 5828 5829 5830 5832 5833 5834 5836 5838 5840 5841 5843 5844 5846 5847 5848 5850 5851 5853 5854 5855 5855 5856 5857 5858 5858
5816 5815 5815 5814 5814 5814 5814 5814 5815 5815 5816 5816 5816 5817 5818 5818 5819 5820 5821 5822 5823 5825 5827 5829 5830 5832 5833 5835 5837 5838 5840 5841 5843 5844 5845 5847 5848 5849 5849 5850 5851 5851 5852
5810 5809 5809 5808 5808 5807 5807 5807 5808 5808 5809 5809 5810 5810 5811 5812 5813 5813 5814 5815 5817 5819 5820 5822 5824 5825 5827 5829 5830 5831 5833 5835 5836 5838 5839 5840 5841 5842 5843 5844 5844 5845 5845
5803 5803 5802 5802 5802 5801 5800 5801 5801 5801 5802 5803 5803 5803 5804 5805 5806 5806 5807 5808 5810 5811 5813 5815 5817 5818 5820 5822 5823 5825 5826 5828 5829 5831 5832 5833 5834 5835 5836 5836 5837 5837 5837
5797 5797 5796 5796 5796 5795 5794 5794 5794 5794 5795 5796 5796 5797 5797 5798 5798 5799 5800 5801 5803 5804 5806 5808 5810 5811 5812 5814 5816 5817 5819 5821 5822 5824 5825 5826 5827 5827 5828 5829 5829 5829 5829
5790 5790 5790 5790 5790 5789 5789 5788 5788 5788 5788 5789 5789 5789 5790 5791 5792 5792 5793 5794 5796 5797 5799 5800 5802 5804 5805 5807 5808 5810 5811 5813 5815 5816 5817 5818 5819 5820 5820 5821 5821 5821 5821
5784 5784 5784 5784 5783 5783 5782 5781 5781 5781 5782 5782 5782 5782 5783 5784 5785 5786 5786 5787 5788 5789 5791 5793 5794 5796 5798 5799 5801 5802 5804 5805 5807 5808 5809 5810 5811 5812 5812 5812 5813 5813 5813
Wind_Speed
5 4 4 4 4 4 4 4 3 3 4 4 4 3 4 4 5 6 7 8 10 10 11 11 11 10 10 9 8 7 6 6 5 4 4 3 3 3 3 3 3 2 2
5 5 6 6 6 6 5 5 5 4 4 4 5 5 5 6 6 7 7 8 9 10 11 11 10 10 10 9 8 7 7 6 5 4 3 3 3 3 3 3 2 2 2
6 6 7 8 8 7 7 6 6 6 6 6 7 7 7 7 7 7 8 9 9 10 10 11 10 10 9 9 8 7 6 6 5 4 3 3 2 2 2 2 2 2 2
8 7 8 8 8 8 8 8 7 7 8 8 8 8 8 8 8 9 9 9 10 10 10 11 10 10 9 9 8 7 6 6 5 4 4 3 2 2 2 2 2 2 2
10 9 9 10 9 9 8 9 9 8 9 9 9 9 9 9 10 10 10 10 10 10 10 11 10 10 9 9 8 8 7 6 6 5 4 4 3 2 2 2 2 3 3
11 11 11 11 10 10 10 10 10 10 10 10 11 11 11 11 11 11 11 11 11 10 11 11 11 10 10 9 9 8 7 6 6 6 5 4 4 3 3 2 2 3 3
11 12 12 13 12 11 10 10 11 11 11 12 12 13 13 12 13 13 12 12 12 12 12 12 11 11 11 10 9 9 8 7 7 7 6 6 5 4 4 3 3 3 3
13 13 13 13 13 12 11 11 11 12 13 13 14 14 15 15 15 14 14 13 13 13 13 13 12 12 11 11 10 10 9 8 8 8 7 7 6 5 5 4 3 3 3
15 14 14 14 13 13 13 13 13 13 14 14 15 16 16 16 16 16 15 15 15 15 15 14 14 13 12 12 11 11 10 9 9 9 9 8 8 7 6 5 4 4 4
16 16 16 15 14 14 15 14 15 15 15 16 16 17 17 17 18 17 17 17 17 17 16 16 16 15 14 13 13 13 12 11 10 10 9 9 9 8 7 7 6 6 5
19 18 18 17 16 16 16 16 16 17 17 18 18 18 19 19 19 19 19 19 19 19 18 18 17 17 16 15 15 14 13 13 12 12 11 10 10 10 9 9 8 8 7
20 19 19 19 18 18 17 17 18 18 19 19 20 20 20 20 20 20 20 20 20 20 20 19 19 18 18 17 16 15 15 14 14 13 13 12 12 12 11 10 10 9 9
22 20 19 20 19 19 19 20 20 20 20 20 21 21 21 21 21 21 21 21 21 21 21 20 19 19 19 18 17 17 17 16 16 15 14 14 13 13 13 12 12 11 11
24 23 21 20 20 20 21 21 22 21 21 21 20 21 22 22 23 22 21 22 22 22 21 20 19 19 19 19 18 18 18 18 18 17 16 15 15 14 14 14 13 13 13
24 23 22 22 23 23 22 22 22 22 22 22 22 21 22 22 23 24 23 22 22 22 22 22 21 20 20 20 19 19 19 19 19 19 18 17 17 16 16 16 16 15 15
23 23 23 24 24 24 25 24 24 25 24 23 23 24 24 24 24 24 24 23 23 22 22 23 22 22 22 21 20 20 20 20 20 20 20 19 18 18 18 18 18 18 17
25 25 26 26 26 26 26 27 26 26 26 25 24 25 26 26 26 26 25 24 24 23 23 23 22 21 21 21 21 21 21 20 20 19 20 20 20 20 20 20 20 20 19
27 27 27 27 27 27 27 27 28 28 27 26 25 25 26 26 27 27 26 26 26 26 24 23 23 22 21 22 22 21 21 21 20 20 20 21 21 22 22 22 22 21 21
27 28 28 28 27 28 29 29 29 29 30 29 27 25 27 27 28 27 28 28 28 27 26 24 24 23 23 23 23 22 22 22 22 22 22 22 23 23 23 23 24 23 23
27 28 28 28 28 28 28 28 29 29 30 30 29 27 27 28 28 29 29 29 28 28 27 26 25 25 25 25 24 23 23 24 25 25 24 25 24 24 25 25 26 26 26
27 28 28 28 28 28 27 28 28 28 29 30 30 29 28 28 27 28 28 28 28 28 28 27 26 27 26 26 27 26 26 26 26 26 26 27 27 27 27 27 28 28 28
27 27 27 27 27 27 27 27 27 27 26 28 29 29 29 28 27 27 27 27 27 28 30 30 28 28 28 27 27 28 28 27 27 28 28 29 29 29 30 29 30 30 30
26 27 26 25 25 26 27 26 26 27 26 26 27 28 28 27 26 26 27 27 28 29 30 30 29 30 30 29 29 29 29 29 29 30 29 29 30 31 31 31 32 32 32
26 27 26 25 25 26 26 27 27 26 25 25 26 27 28 28 27 26 26 27 29 29 30 30 31 31 31 31 30 30 30 30 30 30 31 31 31 31 32 32 33 33 33
26 26 26 25 26 26 26 27 26 25 25 25 25 26 25 25 26 26 26 26 28 30 30 30 29 29 29 29 29 29 30 31 31 31 31 31 32 32 33 33 33 34 35
26 26 25 25 26 26 26 26 25 25 25 25 25 24 24 24 25 25 26 26 28 29 29 30 29 30 30 30 30 31 31 30 31 32 32 33 33 33 34 34 34 34 34
Wind_Direction
282 277 270 266 258 249 243 233 224 221 221 229 241 252 263 278 294 305 314 319 323 326 328 328 328 328 328 326 323 320 319 321 328 333 342 352 2 8 11 17 27 31 31
283 275 273 270 262 253 248 241 232 225 224 234 245 255 264 271 282 294 303 308 313 318 320 322 322 323 324 323 320 318 316 314 319 325 334 343 347 351 3 15 27 34 29
282 275 271 267 261 255 251 248 242 237 235 239 245 253 261 267 275 283 289 297 304 309 313 315 315 316 319 319 316 312 309 307 310 314 318 320 323 337 355 14 24 27 23
278 274 269 263 259 255 251 250 247 246 245 243 246 251 257 265 273 279 284 291 296 301 304 308 310 311 313 313 310 305 300 299 297 296 297 296 299 315 336 358 9 11 12
282 277 269 259 259 259 256 252 251 252 252 252 252 253 256 262 269 275 280 285 289 294 297 301 303 304 305 304 301 296 292 291 285 283 283 282 285 296 314 332 351 360 0
281 277 269 258 259 260 260 255 251 253 256 258 257 257 258 262 267 271 276 280 284 288 293 295 297 297 296 295 292 287 285 281 276 275 275 275 279 287 296 310 329 343 347
283 275 267 260 261 259 256 256 256 259 260 262 261 258 257 262 268 272 273 277 279 284 287 289 289 289 287 287 285 281 279 271 268 269 267 267 272 280 288 301 315 325 330
289 282 272 266 263 261 256 255 256 259 261 263 264 263 260 261 266 269 271 274 276 279 282 282 283 282 279 280 279 276 273 267 262 265 265 265 269 274 283 291 300 311 321
288 283 275 267 263 261 257 256 256 259 261 262 262 263 263 262 264 266 267 269 271 275 278 277 278 277 273 273 274 273 270 266 262 262 264 264 267 271 275 279 285 293 297
285 281 273 265 258 258 259 261 260 260 262 262 263 263 265 264 264 265 264 266 268 271 273 274 275 273 269 269 268 267 267 263 260 260 262 263 266 267 267 270 275 281 284
282 278 270 267 261 260 260 260 260 259 262 262 261 261 262 265 264 265 264 265 266 268 270 270 270 269 267 267 264 262 262 260 259 258 260 262 264 265 264 266 270 273 278
279 276 271 269 267 266 265 264 260 262 262 262 259 258 260 263 264 265 264 264 265 266 267 267 266 266 266 264 261 257 256 255 257 257 257 259 261 261 261 262 266 268 273
276 274 272 274 272 270 267 264 263 264 264 263 260 258 259 261 262 263 264 262 264 265 265 265 264 262 262 261 258 255 252 251 252 254 256 258 257 258 257 260 262 264 267
276 274 274 277 275 270 268 266 263 266 266 265 264 263 260 260 260 261 263 263 263 263 260 259 261 258 259 258 256 254 250 251 251 251 254 255 254 253 253 256 259 262 264
277 274 274 274 275 272 270 266 264 266 268 266 265 264 262 262 260 260 262 261 261 260 258 256 257 256 255 254 253 252 249 248 252 252 253 253 254 253 252 253 257 260 263
276 275 275 274 274 273 268 265 263 264 264 263 265 264 260 260 260 258 259 259 258 257 256 257 255 252 253 252 252 251 251 250 252 251 250 251 252 252 253 255 256 259 261
275 274 273 272 272 269 268 267 265 263 263 261 263 265 260 258 258 256 256 257 256 258 258 255 254 251 250 249 248 249 250 249 247 249 249 249 251 252 253 255 257 259 261
276 275 274 272 272 269 267 265 264 265 264 263 263 268 262 257 255 255 256 257 257 257 256 254 253 250 248 248 247 248 248 247 246 247 249 251 252 254 255 256 257 258 261
276 277 277 275 274 272 271 268 267 265 266 266 263 264 261 260 257 257 258 259 257 256 255 254 252 248 248 248 247 248 248 247 245 245 248 252 252 252 254 256 258 259 261
276 276 277 276 275 274 273 271 269 267 266 266 266 264 263 263 260 258 260 258 255 255 256 255 252 248 248 247 247 247 249 250 249 247 249 252 253 253 253 256 258 261 263
276 276 277 275 273 272 274 273 271 269 267 267 267 267 268 267 263 260 260 257 253 252 253 254 252 250 248 248 247 249 251 252 250 249 249 251 252 254 254 257 259 260 263
274 276 278 277 274 273 273 273 273 269 268 266 269 268 267 266 264 263 259 256 253 253 252 250 251 251 249 249 250 250 250 251 251 250 250 251 251 254 255 258 260 261 263
274 275 277 277 275 275 275 274 274 270 271 270 268 267 264 264 263 265 262 256 254 252 250 248 251 252 250 250 251 252 251 251 250 251 250 251 251 255 257 259 261 262 265
274 274 274 275 276 278 277 275 272 271 271 270 268 266 264 264 264 264 263 260 256 254 251 249 251 254 253 252 252 252 252 252 253 253 252 253 255 255 257 258 261 263 265
274 274 274 275 276 277 278 275 272 270 270 270 269 267 266 263 263 262 262 261 258 256 253 251 249 250 252 251 251 251 252 252 252 253 254 254 256 258 260 261 264 264 265
274 273 274 277 278 278 277 276 273 270 270 269 269 268 265 265 265 264 263 261 260 255 252 250 249 249 252 253 252 251 252 252 251 253 255 256 257 260 261 264 265 265 267